GW4458 Weather Reports


time (UTC)temp
C
wind
direction
speed
KPH
gust
KPH
rain 1hr
cm
rain 24hr
cm
rain mn
cm
humidity
%
barometer
mb
20260506080525 19 204 0.0 3.2 0.00 0.00 0.00 69 989.9
20260506073524 19 0.0 0.0 0.00 0.00 0.00 67 990.0
20260506072529 19 0.0 0.0 0.00 0.00 0.00 66 990.1
20260506071525 19 157 1.6 4.8 0.00 0.00 0.00 66 989.9
20260506070524 20 148 3.2 4.8 0.00 0.00 0.00 65 990.1
20260506061524 20 163 1.6 6.4 0.00 0.00 0.00 60 991.1
20260506060545 20 220 0.0 3.2 0.00 0.00 0.00 59 991.3
20260506050520 21 211 3.2 8.0 0.00 0.00 0.00 54 991.2
20260506044524 21 187 0.0 3.2 0.00 0.00 0.00 53 990.6
20260506043525 21 153 1.6 6.4 0.00 0.00 0.00 52 990.6
20260506042524 21 190 0.0 3.2 0.00 0.00 0.00 51 990.9
20260506041524 21 208 1.6 8.0 0.00 0.00 0.00 51 991.1
20260506040539 21 0.0 3.2 0.00 0.00 0.00 50 991.0
20260506035524 21 267 0.0 3.2 0.00 0.00 0.00 50 990.9
20260506034526 21 0.0 1.6 0.00 0.00 0.00 49 991.0
20260506033526 21 180 0.0 3.2 0.00 0.00 0.00 49 990.8
20260506032524 21 170 0.0 1.6 0.00 0.00 0.00 48 991.0
20260506031520 21 195 1.6 4.8 0.00 0.00 0.00 48 991.1
20260506030520 21 158 1.6 4.8 0.00 0.00 0.00 49 991.1
20260506025530 21 143 0.0 1.6 0.00 0.00 0.00 48 991.1
20260506024525 21 160 1.6 4.8 0.00 0.00 0.00 48 991.0
20260506023524 22 185 0.0 3.2 0.00 0.00 0.00 48 991.1
20260506022520 22 162 1.6 3.2 0.00 0.00 0.00 47 991.1
20260506021524 22 169 1.6 4.8 0.00 0.00 0.00 47 990.9
20260506020527 22 192 1.6 6.4 0.00 0.00 0.00 47 990.7
20260506015521 22 0.0 0.0 0.00 0.00 0.00 47 990.6
20260506014525 22 151 1.6 3.2 0.00 0.00 0.00 47 990.8
20260506013521 22 193 1.6 3.2 0.00 0.00 0.00 46 991.0
20260506012520 22 211 1.6 3.2 0.00 0.00 0.00 46 990.8
20260506011544 22 137 1.6 3.2 0.00 0.00 0.00 46 990.6
20260506010526 22 153 0.0 3.2 0.00 0.00 0.00 45 990.5
20260506005521 22 193 1.6 3.2 0.00 0.00 0.00 45 990.5
20260506004605 22 181 1.6 3.2 0.00 0.00 0.00 44 990.5
20260506003526 22 202 1.6 4.8 0.00 0.00 0.00 43 990.5
20260506002524 23 184 1.6 4.8 0.00 0.00 0.00 42 990.6
20260506001523 23 192 1.6 6.4 0.00 0.00 0.00 42 990.7
20260506000541 23 209 3.2 6.4 0.00 0.00 0.00 40 990.8
20260505235544 23 209 4.8 11.3 0.00 0.00 0.00 40 990.8
20260505234524 23 205 6.4 11.3 0.00 0.00 0.00 40 990.8
20260505233524 24 222 4.8 11.3 0.00 0.00 0.00 41 990.9
20260505232525 24 217 3.2 11.3 0.00 0.00 0.00 40 990.8
20260505231525 25 212 3.2 6.4 0.00 0.00 0.00 39 990.8
20260505230526 25 211 3.2 6.4 0.00 0.00 0.00 38 990.7
20260505225524 25 239 0.0 3.2 0.00 0.00 0.00 37 990.5
20260505224524 25 170 3.2 6.4 0.00 0.00 0.00 37 990.5
20260505223524 25 184 4.8 11.3 0.00 0.00 0.00 38 990.4
20260505222526 25 197 3.2 8.0 0.00 0.00 0.00 36 990.5
20260505221524 26 215 3.2 6.4 0.00 0.00 0.00 36 990.7
20260505220524 26 199 3.2 6.4 0.00 0.00 0.00 35 990.7
20260505215525 26 207 4.8 11.3 0.00 0.00 0.00 34 990.8
20260505214524 26 208 4.8 8.0 0.00 0.00 0.00 34 990.5
20260505213549 26 223 4.8 11.3 0.00 0.00 0.00 34 990.5
20260505212539 26 216 8.0 14.5 0.00 0.00 0.00 32 990.4
20260505211525 27 204 6.4 12.9 0.00 0.00 0.00 32 990.6
20260505210521 27 225 8.0 16.1 0.00 0.00 0.00 33 990.8
20260505205525 27 227 8.0 16.1 0.00 0.00 0.00 32 990.8
20260505204524 27 231 6.4 11.3 0.00 0.00 0.00 31 991.0
20260505203546 28 194 8.0 17.7 0.00 0.00 0.00 33 991.1
20260505202525 28 171 8.0 14.5 0.00 0.00 0.00 33 991.2
20260505201524 28 182 9.7 14.5 0.00 0.00 0.00 31 991.3
20260505200520 28 193 4.8 6.4 0.00 0.00 0.00 33 991.4
20260505195524 27 220 8.0 14.5 0.00 0.00 0.00 32 991.5
20260505194521 27 184 8.0 14.5 0.00 0.00 0.00 33 991.7
20260505193525 27 227 6.4 11.3 0.00 0.00 0.00 33 991.9
20260505192524 27 222 6.4 14.5 0.00 0.00 0.00 33 992.1
20260505191524 27 166 8.0 17.7 0.00 0.00 0.00 35 992.2
20260505190524 26 212 6.4 11.3 0.00 0.00 0.00 35 992.3
20260505185550 27 164 8.0 16.1 0.00 0.00 0.00 35 992.3
20260505184606 26 171 8.0 17.7 0.00 0.00 0.00 36 992.3
20260505183530 27 174 9.7 17.7 0.00 0.00 0.00 35 992.3
20260505182544 27 199 6.4 11.3 0.00 0.00 0.00 33 992.4
20260505181519 27 214 8.0 14.5 0.00 0.00 0.00 33 992.4
20260505180524 26 195 9.7 16.1 0.00 0.00 0.00 35 992.6
20260505175526 27 150 8.0 17.7 0.00 0.00 0.00 34 992.8
20260505174545 26 177 8.0 16.1 0.00 0.00 0.00 34 993.1
20260505173524 27 158 9.7 16.1 0.00 0.00 0.00 34 993.1
20260505172520 27 220 8.0 25.7 0.00 0.00 0.00 36 993.4
20260505171524 26 158 9.7 17.7 0.00 0.00 0.00 36 993.5
20260505170524 26 205 9.7 16.1 0.00 0.00 0.00 36 993.4
20260505165525 26 175 6.4 19.3 0.00 0.00 0.00 36 993.5
20260505164524 26 170 9.7 20.9 0.00 0.00 0.00 35 993.5
20260505163525 26 189 8.0 12.9 0.00 0.00 0.00 37 993.3
20260505162520 27 207 4.8 11.3 0.00 0.00 0.00 38 993.2
20260505161524 26 209 8.0 16.1 0.00 0.00 0.00 40 993.3
20260505160526 25 187 9.7 17.7 0.00 0.00 0.00 42 993.3
20260505152520 25 188 3.2 4.8 0.00 0.00 0.00 43 993.8
20260505151547 24 182 3.2 6.4 0.00 0.00 0.00 47 993.9
20260505150525 23 135 4.8 9.7 0.00 0.00 0.00 49 993.7
20260505140525 22 316 0.0 3.2 0.00 0.00 0.00 51 994.0
20260505124525 16 148 1.6 4.8 0.00 0.00 0.00 68 993.5
20260505123525 15 183 0.0 3.2 0.00 0.00 0.00 74 993.4
20260505122521 14 0.0 0.0 0.00 0.00 0.00 79 993.4
20260505121524 14 158 0.0 1.6 0.00 0.00 0.00 79 993.2
20260505120525 14 150 0.0 3.2 0.00 0.00 0.00 79 993.1
20260505115524 13 0.0 0.0 0.00 0.00 0.00 82 993.0
20260505114545 12 0.0 0.0 0.00 0.00 0.00 83 993.1
20260505113526 11 0.0 0.0 0.00 0.00 0.00 87 992.9
20260505112526 11 0.0 0.0 0.00 0.00 0.00 89 992.7
20260505111524 10 0.0 0.0 0.00 0.00 0.00 89 992.5
20260505110520 10 0.0 0.0 0.00 0.00 0.00 88 992.4
20260505101521 11 0.0 1.6 0.00 0.00 0.00 83 992.2
20260505100524 11 151 0.0 3.2 0.00 0.00 0.00 81 992.1
20260505095530 11 139 1.6 3.2 0.00 0.00 0.00 82 992.4
20260505094545 11 141 0.0 3.2 0.00 0.00 0.00 82 992.5
20260505093524 11 0.0 0.0 0.00 0.00 0.00 83 992.5
20260505092545 10 0.0 0.0 0.00 0.00 0.00 83 992.2
20260505091519 10 0.0 0.0 0.00 0.00 0.00 83 992.1
20260505090524 11 0.0 0.0 0.00 0.00 0.00 83 992.2
20260505085527 11 0.0 0.0 0.00 0.00 0.00 83 992.4
20260505084525 11 0.0 0.0 0.00 0.00 0.00 83 992.5
20260505083524 11 305 0.0 3.2 0.00 0.00 0.00 83 992.5
20260505082520 11 278 0.0 1.6 0.00 0.00 0.00 84 992.4
20260505081540 11 0.0 1.6 0.00 0.00 0.00 85 992.4